Vertical_Velocity
-0 1 1 -2 -2 -3 -1 -1 -2 -2 -1 1 3 1 1 -1 -2 -5 -3 -4 -2 -4 -2 -5 -4 1 -2 -4 -2 -3 0 3
1 1 -1 -1 -2 -2 -3 -4 -6 -5 -4 -5 -1 -6 -2 -3 -0 -0 1 3 -1 -6 1 -7 -6 -1 -0 -3 -4 -7 -6 -1
1 -0 1 -2 -4 -4 -2 -3 -1 -1 -2 -3 -3 -3 -1 3 0 1 -3 1 -1 -3 -2 -5 -4 -7 -5 -5 -3 -8 -2 -2
1 1 -0 -0 -2 -4 -1 0 -0 -3 -0 -1 -5 -2 -3 -9 -5 -2 -3 -2 -1 -0 0 -1 -4 -3 -3 -1 -0 -1 -1 -3
2 -1 -0 -2 -3 0 1 -1 -2 -2 -1 -2 -2 -1 2 0 3 3 1 0 -1 -0 -1 -3 -3 -3 -2 -2 1 -2 0 -4
-2 1 -0 0 -1 -1 -2 0 -3 -2 -3 -2 -1 -5 -0 1 -1 -3 -1 2 1 -1 -4 -3 -3 -4 -1 -2 -3 -5 -0 3
1 0 -0 -2 -1 2 -1 -1 -2 1 -1 -1 -2 -1 -0 -1 -3 -2 -2 -1 -0 -2 -2 -1 1 -2 -4 -3 -1 -1 -1 5
-0 0 -1 -1 -2 -1 -2 -0 -1 -2 -2 -1 -3 -2 -2 -0 -2 -1 -6 -4 -5 -2 -5 -6 -4 -3 -0 -2 0 -2 -3 -4
1 0 -0 -4 -2 0 1 -2 -3 -1 -2 -0 0 -3 0 -4 2 1 -0 -1 -2 -0 -1 -1 -2 -1 -1 0 2 0 0 -3
1 -0 -2 -1 1 1 -3 -3 -2 -2 -1 0 -3 0 0 -2 0 0 -1 -0 0 -1 -0 -3 -2 1 1 1 -2 -3 -2 -3
-0 -0 1 1 -2 -2 -1 -0 -2 -0 1 1 -6 -2 2 2 3 -2 -3 -2 -1 -4 -3 -2 -1 2 0 -0 -3 -3 -1 0
0 0 -1 -4 -2 -2 -1 1 -1 -1 -0 -2 -2 -1 -3 3 -1 1 -2 -2 -1 -2 -2 -2 -3 -2 -1 1 1 -1 -4 -0
-1 -2 -3 -1 -1 -1 1 1 -2 -3 0 -3 -0 -2 -0 0 0 -1 -1 -2 2 -1 -0 2 -0 -1 -1 -1 -1 -0 -2 -3
-1 -3 2 -1 -0 1 -1 -4 -2 -3 -2 -1 -2 0 0 -0 -1 -0 -1 -1 -2 0 -1 -2 -3 -3 -4 -0 1 -0 0 1
-1 0 0 1 -0 -2 1 1 -1 1 -1 -3 0 1 2 0 1 -1 -3 -1 -0 -0 -3 -2 -1 -1 -1 -2 0 0 0 0
1 -0 -1 -0 2 2 1 0 -2 -2 -1 -0 -1 1 2 0 -2 -1 -1 -2 2 -1 -2 -1 -0 -3 -5 -4 -1 0 -1 -0
-0 -1 0 2 1 -0 1 -1 -2 2 -2 -0 -3 -3 -2 -1 -1 -1 -0 0 0 -0 -1 -2 -3 -2 1 1 -1 -1 -0 -2
-2 2 2 0 -0 -1 -2 -1 0 -0 -1 2 0 -2 2 -2 -2 -1 -1 -3 0 -0 -0 -2 -2 -0 1 1 -0 -0 -1 -1
2 1 -1 -0 1 1 1 1 -0 2 1 1 -0 -1 1 -1 -2 -2 -1 -4 -3 -2 -1 -0 -1 -1 0 1 0 0 1 -2
Height
1588 1587 1586 1584 1581 1578 1575 1572 1568 1565 1561 1558 1554 1550 1546 1541 1535 1529 1523 1517 1511 1506 1502 1498 1493 1487 1481 1476 1471 1466 1461 1454
1587 1586 1585 1583 1581 1579 1575 1571 1567 1563 1559 1555 1552 1550 1546 1542 1538 1532 1525 1516 1510 1505 1500 1496 1493 1488 1482 1476 1470 1464 1460 1453
1586 1585 1584 1582 1580 1578 1574 1570 1566 1562 1559 1554 1551 1548 1546 1543 1537 1532 1526 1520 1511 1504 1499 1495 1492 1487 1482 1476 1470 1465 1461 1455
1583 1583 1583 1581 1580 1577 1573 1568 1565 1562 1558 1555 1551 1548 1544 1541 1537 1532 1526 1520 1513 1506 1500 1495 1491 1486 1481 1475 1470 1466 1461 1456
1582 1583 1582 1581 1579 1578 1574 1569 1566 1562 1558 1554 1551 1549 1544 1540 1537 1533 1527 1521 1513 1507 1501 1496 1490 1486 1480 1474 1470 1466 1463 1456
1582 1582 1581 1580 1580 1577 1573 1570 1565 1562 1558 1554 1551 1548 1546 1542 1537 1531 1527 1521 1514 1508 1502 1497 1491 1486 1480 1474 1469 1466 1463 1458
1581 1581 1581 1581 1580 1577 1573 1569 1566 1562 1559 1555 1552 1548 1545 1540 1536 1531 1528 1523 1516 1509 1504 1498 1492 1485 1479 1474 1470 1466 1462 1457
1580 1580 1581 1581 1580 1576 1572 1569 1566 1563 1559 1556 1552 1550 1546 1541 1536 1531 1526 1521 1517 1510 1505 1499 1493 1486 1479 1475 1471 1466 1462 1457
1580 1580 1581 1580 1578 1575 1573 1570 1566 1564 1561 1558 1553 1548 1543 1539 1535 1529 1525 1521 1517 1512 1506 1501 1494 1486 1480 1475 1470 1466 1462 1456
1580 1581 1581 1579 1577 1574 1572 1570 1567 1565 1561 1557 1554 1550 1544 1538 1536 1532 1527 1523 1517 1513 1507 1501 1494 1487 1480 1475 1470 1465 1461 1455
1580 1580 1579 1578 1576 1574 1572 1570 1567 1564 1561 1556 1552 1550 1545 1538 1533 1528 1526 1522 1518 1512 1507 1501 1494 1487 1480 1475 1470 1465 1460 1455
1578 1579 1579 1578 1575 1573 1572 1570 1566 1564 1561 1557 1551 1549 1545 1541 1534 1530 1525 1522 1518 1512 1507 1501 1494 1487 1479 1474 1469 1465 1460 1454
1577 1578 1578 1576 1574 1573 1572 1570 1566 1563 1561 1558 1553 1548 1544 1539 1534 1531 1526 1522 1518 1512 1507 1501 1494 1486 1479 1473 1468 1464 1459 1454
1576 1576 1576 1574 1574 1573 1570 1568 1566 1564 1561 1557 1553 1548 1543 1540 1535 1531 1527 1522 1517 1512 1507 1501 1494 1486 1478 1472 1468 1463 1459 1453
1573 1575 1575 1574 1573 1571 1569 1567 1566 1564 1560 1557 1552 1548 1543 1540 1536 1531 1527 1523 1517 1512 1507 1501 1494 1487 1479 1472 1467 1463 1458 1453
1574 1575 1574 1573 1572 1572 1570 1568 1565 1563 1560 1557 1553 1550 1546 1541 1536 1532 1527 1524 1518 1512 1507 1501 1495 1487 1480 1473 1467 1462 1458 1452
1572 1573 1573 1573 1572 1571 1569 1566 1564 1562 1559 1555 1553 1550 1546 1541 1537 1533 1527 1523 1519 1513 1507 1501 1495 1488 1482 1476 1468 1462 1458 1452
1571 1571 1572 1571 1570 1569 1567 1567 1563 1562 1558 1554 1551 1547 1544 1539 1537 1533 1527 1523 1518 1513 1507 1501 1495 1488 1482 1477 1470 1464 1458 1453
1569 1569 1570 1570 1568 1568 1567 1566 1563 1560 1556 1555 1552 1548 1545 1539 1537 1533 1528 1524 1519 1513 1508 1501 1496 1489 1484 1478 1471 1465 1460 1454